TimeCST,TemperatureF,Dew PointF,Humidity,Sea Level PressureIn,VisibilityMPH,Wind Direction,Wind SpeedMPH,Gust SpeedMPH,PrecipitationIn,Events,Conditions,WindDirDegrees,DateUTC
12:53 AM,18.0,14.0,84,30.43,8.0,NW,6.9,-,0.00,Snow,Light Snow,320,2013-03-06 06:53:00
1:53 AM,17.1,14.0,88,30.44,10.0,NW,8.1,-,0.00,,Overcast,320,2013-03-06 07:53:00
2:53 AM,17.1,12.9,84,30.44,9.0,NW,8.1,-,0.00,,Overcast,320,2013-03-06 08:53:00
3:53 AM,16.0,12.9,88,30.43,10.0,NNW,6.9,-,0.00,,Overcast,330,2013-03-06 09:53:00
4:53 AM,16.0,12.9,88,30.45,10.0,NW,5.8,-,N/A,,Overcast,310,2013-03-06 10:53:00
5:53 AM,15.8,12.2,86,30.41,10.0,WNW,3.5,-,N/A,,Overcast,300,2013-03-06 11:53:00
6:53 AM,16.0,12.9,88,30.47,10.0,NW,3.5,-,N/A,,Overcast,310,2013-03-06 12:53:00
7:53 AM,17.1,12.9,84,30.47,9.0,Calm,Calm,-,0.00,Snow,Light Snow,0,2013-03-06 13:53:00
8:53 AM,19.0,14.0,81,30.47,7.0,NNE,3.5,-,0.00,Snow,Light Snow,30,2013-03-06 14:53:00
9:53 AM,19.9,15.1,81,30.47,8.0,North,3.5,-,0.00,Snow,Light Snow,350,2013-03-06 15:53:00
10:53 AM,21.0,15.1,78,30.46,7.0,NNE,3.5,-,0.00,Snow,Light Snow,20,2013-03-06 16:53:00
11:53 AM,23.0,12.0,63,30.45,9.0,ENE,5.8,-,0.00,,Overcast,60,2013-03-06 17:53:00
12:53 PM,23.0,12.9,65,30.43,9.0,NE,4.6,-,0.00,,Overcast,50,2013-03-06 18:53:00
1:53 PM,21.9,12.0,66,30.41,10.0,Variable,3.5,-,0.00,,Overcast,0,2013-03-06 19:53:00
2:53 PM,21.9,12.9,68,30.40,10.0,NE,5.8,-,N/A,,Overcast,50,2013-03-06 20:53:00
3:53 PM,21.0,12.9,71,30.39,10.0,Variable,3.5,-,N/A,,Overcast,0,2013-03-06 21:53:00
4:53 PM,19.9,12.9,74,30.38,10.0,South,4.6,-,N/A,,Overcast,180,2013-03-06 22:53:00
5:53 PM,19.9,12.9,74,30.38,10.0,SE,6.9,-,N/A,,Overcast,140,2013-03-06 23:53:00
6:53 PM,19.0,12.0,74,30.37,10.0,SSE,3.5,-,N/A,,Mostly Cloudy,150,2013-03-07 00:53:00
7:05 PM,17.6,12.2,79,30.32,10.0,Calm,Calm,-,N/A,,Overcast,0,2013-03-07 01:05:00
7:53 PM,17.1,12.0,81,30.36,10.0,ENE,3.5,-,N/A,,Overcast,70,2013-03-07 01:53:00
8:53 PM,12.0,8.1,84,30.36,10.0,Calm,Calm,-,N/A,,Overcast,0,2013-03-07 02:53:00
9:53 PM,14.0,10.9,88,30.36,10.0,ESE,3.5,-,N/A,,Overcast,120,2013-03-07 03:53:00
10:53 PM,10.0,8.1,92,30.35,10.0,ESE,5.8,-,N/A,,Partly Cloudy,120,2013-03-07 04:53:00
11:53 PM,1.0,-0.0,95,30.36,7.0,South,3.5,-,N/A,,Clear,190,2013-03-07 05:53:00